User: anonymous   Login
Location: Miami, Florida
(25.6830°N, 80.1700°W)
Time: 00:10:08
(UTC-04:00)
Language:

Vanguard 2 Rocket - Orbit

View from above orbital plane
View from above orbital plane
View from above satellite
View from above satellite

Ground track
Ground track

The orbit data is extracted from the following two-line orbital elements,

1    12U 59001B   18167.98425433 +.00000199 +00000-0 +10158-3 0  9996
2    12 032.9055 030.0194 1667432 190.5123 165.5937 11.44241534196175
Epoch (UTC): 16 June 2018 23:37:19
Eccentricity: 0.1667432
inclination: 32.9055°
perigee height: 553 km
apogee height: 3327 km
right ascension of ascending node: 30.0194°
argument of perigee: 190.5123°
revolutions per day: 11.44241534
mean anomaly at epoch: 165.5937°
orbit number at epoch: 19617

The dashed part of the orbit path shows where the satellite is in the earth's shadow,  

DLR